Time,TemperatureF,DewpointF,PressureIn,WindDirection,WindDirectionDegrees,WindSpeedMPH,WindSpeedGustMPH,Humidity,HourlyPrecipIn,Conditions,Clouds,dailyrainin,SoftwareType,DateUTC
2013-08-08 00:01:00,72.2,68.8,30.09,NNE,23,0.6,2.0,89,0.00,RA,,0.00,WeatherDisplay:10.37,2013-08-08 04:01:00,
2013-08-08 00:02:00,72.2,68.4,30.09,NNE,23,1.4,3.5,88,0.00,RA,,0.00,WeatherDisplay:10.37,2013-08-08 04:02:00,
2013-08-08 00:07:00,72.3,68.9,30.09,NNE,23,0.0,0.0,89,0.00,RA,,0.00,WeatherDisplay:10.37,2013-08-08 04:07:00,
2013-08-08 00:12:00,72.3,68.9,30.09,NNE,23,0.0,0.0,89,0.00,RA,,0.00,WeatherDisplay:10.37,2013-08-08 04:12:00,
2013-08-08 00:17:00,72.3,68.9,30.09,NW,311,0.0,0.0,89,0.00,RA,,0.00,WeatherDisplay:10.37,2013-08-08 04:17:00,
2013-08-08 00:22:00,72.3,68.9,30.09,NW,312,0.0,0.0,89,0.00,RA,,0.00,WeatherDisplay:10.37,2013-08-08 04:22:00,
2013-08-08 00:27:00,72.2,68.4,30.09,WSW,246,0.0,0.0,88,0.00,RA,,0.00,WeatherDisplay:10.37,2013-08-08 04:27:00,
2013-08-08 00:32:00,72.2,68.4,30.08,WSW,246,0.0,0.0,88,0.00,BKN,,0.00,WeatherDisplay:10.37,2013-08-08 04:32:00,
2013-08-08 00:37:00,72.2,68.4,30.08,SW,222,0.6,1.2,88,0.00,BKN,,0.00,WeatherDisplay:10.37,2013-08-08 04:37:00,
2013-08-08 00:42:00,72.2,68.1,30.08,NW,304,0.1,1.0,87,0.00,BKN,,0.00,WeatherDisplay:10.37,2013-08-08 04:42:00,
2013-08-08 00:47:00,72.3,68.2,30.08,WNW,292,0.1,1.2,87,0.00,BKN,,0.00,WeatherDisplay:10.37,2013-08-08 04:47:00,
2013-08-08 00:52:00,72.4,68.3,30.08,NW,319,0.4,1.2,87,0.00,BKN,,0.00,WeatherDisplay:10.37,2013-08-08 04:52:00,
2013-08-08 00:57:00,72.4,68.3,30.08,NNW,335,0.2,3.5,87,0.00,BKN,,0.00,WeatherDisplay:10.37,2013-08-08 04:57:00,
2013-08-08 01:02:00,72.5,68.1,30.08,West,259,0.0,0.0,86,0.00,OVC,,0.00,WeatherDisplay:10.37,2013-08-08 05:02:00,
2013-08-08 01:07:00,72.6,68.2,30.08,West,269,0.0,0.0,86,0.00,OVC,,0.00,WeatherDisplay:10.37,2013-08-08 05:07:00,
2013-08-08 01:12:00,72.5,67.7,30.08,North,358,0.3,1.2,85,0.00,OVC,,0.00,WeatherDisplay:10.37,2013-08-08 05:12:00,
2013-08-08 01:17:00,72.6,67.8,30.08,West,262,0.0,1.2,85,0.00,OVC,,0.00,WeatherDisplay:10.37,2013-08-08 05:17:00,
2013-08-08 01:22:00,72.4,68.0,30.08,WSW,257,0.0,0.0,86,0.00,OVC,,0.00,WeatherDisplay:10.37,2013-08-08 05:22:00,
2013-08-08 01:27:00,72.2,67.8,30.08,WSW,257,0.0,0.0,86,0.00,OVC,,0.00,WeatherDisplay:10.37,2013-08-08 05:27:00,
2013-08-08 01:32:00,71.9,67.8,30.09,WSW,257,0.0,0.0,87,0.00,OVC,,0.00,WeatherDisplay:10.37,2013-08-08 05:32:00,
2013-08-08 01:37:00,71.7,68.0,30.08,West,260,0.0,0.0,88,0.00,OVC,,0.00,WeatherDisplay:10.37,2013-08-08 05:37:00,
2013-08-08 01:42:00,71.5,68.1,30.08,West,260,0.0,0.0,89,0.00,OVC,,0.00,WeatherDisplay:10.37,2013-08-08 05:42:00,
2013-08-08 01:47:00,71.3,67.9,30.08,West,260,0.1,1.0,89,0.00,OVC,,0.00,WeatherDisplay:10.37,2013-08-08 05:47:00,
2013-08-08 01:52:00,71.2,67.8,30.08,West,260,0.0,0.0,89,0.00,OVC,,0.00,WeatherDisplay:10.37,2013-08-08 05:52:00,
2013-08-08 01:57:00,71.2,68.1,30.08,West,262,0.3,1.2,90,0.00,OVC,,0.00,WeatherDisplay:10.37,2013-08-08 05:57:00,
2013-08-08 02:02:00,71.1,68.0,30.08,West,262,0.0,0.0,90,0.00,OVC,,0.00,WeatherDisplay:10.37,2013-08-08 06:02:00,
2013-08-08 02:07:00,71.1,68.0,30.08,West,262,0.0,0.0,90,0.00,OVC,,0.00,WeatherDisplay:10.37,2013-08-08 06:07:00,
2013-08-08 02:12:00,71.1,68.0,30.07,West,262,0.0,1.2,90,0.00,OVC,,0.00,WeatherDisplay:10.37,2013-08-08 06:12:00,
2013-08-08 02:17:00,71.0,68.2,30.08,West,262,0.0,0.0,91,0.00,OVC,,0.00,WeatherDisplay:10.37,2013-08-08 06:17:00,
2013-08-08 02:22:00,71.0,68.2,30.08,West,262,0.0,0.0,91,0.00,OVC,,0.00,WeatherDisplay:10.37,2013-08-08 06:22:00,
2013-08-08 02:27:00,70.9,68.1,30.08,West,262,0.0,0.0,91,0.00,OVC,,0.00,WeatherDisplay:10.37,2013-08-08 06:27:00,
2013-08-08 02:32:00,70.9,68.1,30.08,West,262,0.0,0.0,91,0.00,OVC,,0.00,WeatherDisplay:10.37,2013-08-08 06:32:00,
2013-08-08 02:37:00,70.9,68.1,30.08,West,262,0.0,0.0,91,0.00,OVC,,0.00,WeatherDisplay:10.37,2013-08-08 06:37:00,
2013-08-08 02:42:00,70.9,68.1,30.08,West,262,0.0,0.0,91,0.00,OVC,,0.00,WeatherDisplay:10.37,2013-08-08 06:42:00,
2013-08-08 02:47:00,70.9,68.1,30.08,West,263,0.0,0.0,91,0.00,OVC,,0.00,WeatherDisplay:10.37,2013-08-08 06:47:00,
2013-08-08 02:52:00,70.9,68.1,30.08,West,263,0.0,0.0,91,0.00,OVC,,0.00,WeatherDisplay:10.37,2013-08-08 06:52:00,
2013-08-08 02:57:00,70.9,68.1,30.08,West,262,0.0,1.2,91,0.00,OVC,,0.00,WeatherDisplay:10.37,2013-08-08 06:57:00,
2013-08-08 03:02:00,70.8,68.0,30.08,West,262,0.0,0.0,91,0.00,OVC,,0.00,WeatherDisplay:10.37,2013-08-08 07:02:00,
2013-08-08 03:07:00,70.8,68.0,30.08,WSW,238,0.0,0.0,91,0.00,OVC,,0.00,WeatherDisplay:10.37,2013-08-08 07:07:00,
2013-08-08 03:12:00,70.8,68.0,30.08,WSW,239,0.0,0.0,91,0.00,OVC,,0.00,WeatherDisplay:10.37,2013-08-08 07:12:00,
2013-08-08 03:17:00,70.7,67.9,30.08,WSW,238,0.0,0.0,91,0.00,OVC,,0.00,WeatherDisplay:10.37,2013-08-08 07:17:00,
2013-08-08 03:22:00,70.7,68.3,30.08,WSW,238,0.3,1.2,92,0.00,OVC,,0.00,WeatherDisplay:10.37,2013-08-08 07:22:00,
2013-08-08 03:27:00,70.7,68.3,30.07,WSW,238,0.0,0.0,92,0.00,OVC,,0.00,WeatherDisplay:10.37,2013-08-08 07:27:00,
2013-08-08 03:32:00,70.6,68.2,30.07,WSW,238,0.0,0.0,92,0.00,OVC,,0.00,WeatherDisplay:10.37,2013-08-08 07:32:00,
2013-08-08 03:37:00,70.6,68.2,30.07,WSW,238,0.0,0.0,92,0.00,OVC,,0.00,WeatherDisplay:10.37,2013-08-08 07:37:00,
2013-08-08 03:42:00,70.6,68.2,30.07,SE,125,0.0,1.2,92,0.00,OVC,,0.00,WeatherDisplay:10.37,2013-08-08 07:42:00,
2013-08-08 03:47:00,70.6,68.2,30.07,SE,125,0.0,0.0,92,0.00,OVC,,0.00,WeatherDisplay:10.37,2013-08-08 07:47:00,
2013-08-08 03:52:00,70.6,68.2,30.07,SE,125,0.0,0.0,92,0.00,OVC,,0.00,WeatherDisplay:10.37,2013-08-08 07:52:00,
2013-08-08 03:57:00,70.6,68.2,30.07,SE,125,0.0,0.0,92,0.00,OVC,,0.00,WeatherDisplay:10.37,2013-08-08 07:57:00,
2013-08-08 04:02:00,70.6,68.2,30.07,SE,125,0.0,0.0,92,0.00,OVC,,0.00,WeatherDisplay:10.37,2013-08-08 08:02:00,
2013-08-08 04:07:00,70.6,68.2,30.07,SE,125,0.0,0.0,92,0.00,OVC,,0.00,WeatherDisplay:10.37,2013-08-08 08:07:00,
2013-08-08 04:12:00,70.6,68.2,30.07,SE,125,0.0,0.0,92,0.00,OVC,,0.00,WeatherDisplay:10.37,2013-08-08 08:12:00,
2013-08-08 04:17:00,70.6,68.2,30.07,SE,125,0.0,0.0,92,0.00,OVC,,0.00,WeatherDisplay:10.37,2013-08-08 08:17:00,
2013-08-08 04:22:00,70.6,68.5,30.07,SE,125,0.0,0.0,93,0.00,OVC,,0.00,WeatherDisplay:10.37,2013-08-08 08:22:00,
2013-08-08 04:27:00,70.5,68.4,30.07,SE,125,0.0,0.0,93,0.00,OVC,,0.00,WeatherDisplay:10.37,2013-08-08 08:27:00,
2013-08-08 04:32:00,70.5,68.4,30.07,SE,125,0.0,0.0,93,0.00,OVC,,0.00,WeatherDisplay:10.37,2013-08-08 08:32:00,
2013-08-08 04:37:00,70.5,68.4,30.07,SE,125,0.0,0.0,93,0.00,OVC,,0.00,WeatherDisplay:10.37,2013-08-08 08:37:00,
2013-08-08 04:42:00,70.5,68.4,30.07,SE,125,0.0,0.0,93,0.00,OVC,,0.00,WeatherDisplay:10.37,2013-08-08 08:42:00,
2013-08-08 04:47:00,70.5,68.4,30.07,SE,125,0.0,0.0,93,0.00,OVC,,0.00,WeatherDisplay:10.37,2013-08-08 08:47:00,
2013-08-08 04:52:00,70.4,68.3,30.07,SE,125,0.0,0.0,93,0.00,OVC,,0.00,WeatherDisplay:10.37,2013-08-08 08:52:00,
2013-08-08 04:57:00,70.4,68.3,30.06,SE,125,0.0,0.0,93,0.00,OVC,,0.00,WeatherDisplay:10.37,2013-08-08 08:57:00,
2013-08-08 05:02:00,70.4,68.3,30.06,SE,125,0.0,0.0,93,0.00,OVC,,0.00,WeatherDisplay:10.37,2013-08-08 09:02:00,
2013-08-08 05:07:00,70.4,68.3,30.06,SE,125,0.0,0.0,93,0.00,OVC,,0.00,WeatherDisplay:10.37,2013-08-08 09:07:00,
2013-08-08 05:12:00,70.3,68.2,30.06,SE,125,0.0,0.0,93,0.00,OVC,,0.00,WeatherDisplay:10.37,2013-08-08 09:12:00,
2013-08-08 05:17:00,70.2,68.1,30.06,SE,133,0.0,0.0,93,0.00,OVC,,0.00,WeatherDisplay:10.37,2013-08-08 09:17:00,
2013-08-08 05:22:00,70.2,68.1,30.06,SE,133,0.0,0.0,93,0.00,OVC,,0.00,WeatherDisplay:10.37,2013-08-08 09:22:00,
2013-08-08 05:27:00,70.1,68.0,30.06,SE,133,0.0,0.0,93,0.00,OVC,,0.00,WeatherDisplay:10.37,2013-08-08 09:27:00,
2013-08-08 05:32:00,70.1,68.0,30.06,SE,133,0.0,0.0,93,0.00,OVC,,0.00,WeatherDisplay:10.37,2013-08-08 09:32:00,
2013-08-08 05:37:00,70.1,68.0,30.06,SE,133,0.0,0.0,93,0.00,OVC,,0.00,WeatherDisplay:10.37,2013-08-08 09:37:00,
2013-08-08 05:42:00,70.0,67.9,30.06,SE,133,0.0,0.0,93,0.00,OVC,,0.00,WeatherDisplay:10.37,2013-08-08 09:42:00,
2013-08-08 05:47:00,70.1,68.0,30.06,SE,133,0.0,0.0,93,0.00,OVC,,0.00,WeatherDisplay:10.37,2013-08-08 09:47:00,
2013-08-08 05:52:00,70.0,67.9,30.07,SE,132,0.0,0.0,93,0.00,OVC,,0.00,WeatherDisplay:10.37,2013-08-08 09:52:00,
2013-08-08 05:57:00,70.0,67.9,30.07,SE,133,0.0,0.0,93,0.00,OVC,,0.00,WeatherDisplay:10.37,2013-08-08 09:57:00,
2013-08-08 06:02:00,70.0,67.9,30.06,SE,133,0.0,0.0,93,0.00,OVC,,0.00,WeatherDisplay:10.37,2013-08-08 10:02:00,
2013-08-08 06:07:00,70.0,68.2,30.06,SE,132,0.0,0.0,94,0.00,OVC,,0.00,WeatherDisplay:10.37,2013-08-08 10:07:00,
2013-08-08 06:12:00,70.0,68.2,30.07,SE,133,0.0,0.0,94,0.00,OVC,,0.00,WeatherDisplay:10.37,2013-08-08 10:12:00,
2013-08-08 06:17:00,70.0,68.2,30.07,SE,133,0.0,0.0,94,0.00,OVC,,0.00,WeatherDisplay:10.37,2013-08-08 10:17:00,
2013-08-08 06:22:00,70.0,68.2,30.07,SW,217,0.0,0.0,94,0.00,OVC,,0.00,WeatherDisplay:10.37,2013-08-08 10:22:00,
2013-08-08 06:27:00,70.0,68.2,30.07,SW,217,0.0,0.0,94,0.00,OVC,,0.00,WeatherDisplay:10.37,2013-08-08 10:27:00,
2013-08-08 06:32:00,70.0,68.2,30.07,SW,217,0.0,0.0,94,0.00,OVC,,0.00,WeatherDisplay:10.37,2013-08-08 10:32:00,
2013-08-08 06:37:00,70.0,68.2,30.07,SW,217,0.0,0.0,94,0.00,OVC,,0.00,WeatherDisplay:10.37,2013-08-08 10:37:00,
2013-08-08 06:42:00,70.0,68.2,30.08,SW,217,0.0,0.0,94,0.00,OVC,,0.00,WeatherDisplay:10.37,2013-08-08 10:42:00,
2013-08-08 06:47:00,70.0,68.2,30.07,SW,217,0.0,0.0,94,0.00,OVC,,0.00,WeatherDisplay:10.37,2013-08-08 10:47:00,
2013-08-08 06:52:00,70.0,68.2,30.07,SW,217,0.0,0.0,94,0.00,OVC,,0.00,WeatherDisplay:10.37,2013-08-08 10:52:00,
2013-08-08 06:57:00,70.0,68.2,30.07,SW,217,0.0,0.0,94,0.00,OVC,,0.00,WeatherDisplay:10.37,2013-08-08 10:57:00,
2013-08-08 07:02:00,70.0,68.2,30.08,SW,217,0.0,0.0,94,0.00,OVC,,0.00,WeatherDisplay:10.37,2013-08-08 11:02:00,
2013-08-08 07:07:00,70.0,68.2,30.08,SW,217,0.0,0.0,94,0.00,OVC,,0.00,WeatherDisplay:10.37,2013-08-08 11:07:00,
2013-08-08 07:12:00,70.0,68.2,30.08,SW,217,0.0,0.0,94,0.00,OVC,,0.00,WeatherDisplay:10.37,2013-08-08 11:12:00,
2013-08-08 07:17:00,70.0,68.2,30.08,SW,217,0.0,0.0,94,0.00,OVC,,0.00,WeatherDisplay:10.37,2013-08-08 11:17:00,
2013-08-08 07:22:00,70.0,68.2,30.08,SW,217,0.0,0.0,94,0.00,OVC,,0.00,WeatherDisplay:10.37,2013-08-08 11:22:00,
2013-08-08 07:27:00,70.0,68.2,30.08,SW,217,0.0,0.0,94,0.00,OVC,,0.00,WeatherDisplay:10.37,2013-08-08 11:27:00,
2013-08-08 07:32:00,70.1,68.3,30.08,SW,217,0.0,0.0,94,0.00,OVC,,0.00,WeatherDisplay:10.37,2013-08-08 11:32:00,
2013-08-08 07:37:00,70.2,68.4,30.08,SW,217,0.0,0.0,94,0.00,OVC,,0.00,WeatherDisplay:10.37,2013-08-08 11:37:00,
2013-08-08 07:42:00,70.3,68.5,30.08,SW,217,0.0,0.0,94,0.00,OVC,,0.00,WeatherDisplay:10.37,2013-08-08 11:42:00,
2013-08-08 07:47:00,70.4,68.6,30.08,SW,217,0.0,0.0,94,0.00,OVC,,0.00,WeatherDisplay:10.37,2013-08-08 11:47:00,
2013-08-08 07:52:00,70.5,68.4,30.08,WSW,249,0.0,0.0,93,0.00,OVC,,0.00,WeatherDisplay:10.37,2013-08-08 11:52:00,
2013-08-08 07:57:00,70.6,68.5,30.08,WSW,248,0.0,0.0,93,0.00,OVC,,0.00,WeatherDisplay:10.37,2013-08-08 11:57:00,
2013-08-08 08:02:00,70.9,68.8,30.08,WSW,249,0.0,0.0,93,0.00,OVC,,0.00,WeatherDisplay:10.37,2013-08-08 12:02:00,
2013-08-08 08:07:00,71.1,69.0,30.08,WSW,249,0.0,0.0,93,0.00,OVC,,0.00,WeatherDisplay:10.37,2013-08-08 12:07:00,
2013-08-08 08:12:00,71.3,68.9,30.08,NW,312,0.0,0.0,92,0.00,OVC,,0.00,WeatherDisplay:10.37,2013-08-08 12:12:00,
2013-08-08 08:17:00,71.4,68.6,30.08,WNW,302,0.0,0.0,91,0.00,OVC,,0.00,WeatherDisplay:10.37,2013-08-08 12:17:00,
2013-08-08 08:22:00,71.6,68.5,30.08,WNW,302,0.0,0.0,90,0.00,OVC,,0.00,WeatherDisplay:10.37,2013-08-08 12:22:00,
2013-08-08 08:27:00,71.8,68.7,30.08,WNW,288,0.0,0.0,90,0.00,OVC,,0.00,WeatherDisplay:10.37,2013-08-08 12:27:00,
2013-08-08 08:32:00,72.0,68.9,30.08,WNW,288,0.0,0.0,90,0.00,OVC,,0.00,WeatherDisplay:10.37,2013-08-08 12:32:00,
2013-08-08 08:37:00,72.4,69.0,30.08,NW,307,0.0,0.0,89,0.00,OVC,,0.00,WeatherDisplay:10.37,2013-08-08 12:37:00,
2013-08-08 08:42:00,72.5,69.1,30.09,NW,307,0.0,0.0,89,0.00,OVC,,0.00,WeatherDisplay:10.37,2013-08-08 12:42:00,
2013-08-08 08:47:00,72.7,68.9,30.09,NW,307,0.0,0.0,88,0.00,OVC,,0.00,WeatherDisplay:10.37,2013-08-08 12:47:00,
2013-08-08 08:52:00,72.8,69.0,30.08,West,267,0.0,1.2,88,0.00,OVC,,0.00,WeatherDisplay:10.37,2013-08-08 12:52:00,
2013-08-08 08:57:00,72.8,68.7,30.08,WNW,295,0.0,0.0,87,0.00,OVC,,0.00,WeatherDisplay:10.37,2013-08-08 12:57:00,
2013-08-08 09:02:00,72.9,69.1,30.08,WNW,295,0.0,0.0,88,0.00,OVC,,0.00,WeatherDisplay:10.37,2013-08-08 13:02:00,
2013-08-08 09:07:00,73.0,68.9,30.08,WNW,295,0.0,0.0,87,0.00,OVC,,0.00,WeatherDisplay:10.37,2013-08-08 13:07:00,
2013-08-08 09:12:00,73.3,69.5,30.08,WNW,295,0.0,0.0,88,0.00,OVC,,0.00,WeatherDisplay:10.37,2013-08-08 13:12:00,
2013-08-08 09:17:00,73.5,69.4,30.08,WNW,295,0.0,0.0,87,0.00,OVC,,0.00,WeatherDisplay:10.37,2013-08-08 13:17:00,
2013-08-08 09:22:00,73.7,69.2,30.09,SW,217,0.9,2.3,86,0.00,OVC,,0.00,WeatherDisplay:10.37,2013-08-08 13:22:00,
2013-08-08 09:27:00,73.8,69.3,30.09,West,264,0.0,0.0,86,0.00,OVC,,0.00,WeatherDisplay:10.37,2013-08-08 13:27:00,
2013-08-08 09:32:00,74.0,69.2,30.09,WSW,257,1.0,2.3,85,0.00,OVC,,0.00,WeatherDisplay:10.37,2013-08-08 13:32:00,
2013-08-08 09:37:00,74.3,69.8,30.09,West,265,0.0,0.0,86,0.00,OVC,,0.00,WeatherDisplay:10.37,2013-08-08 13:37:00,
2013-08-08 09:42:00,74.7,69.5,30.09,WSW,244,0.9,2.3,84,0.00,OVC,,0.00,WeatherDisplay:10.37,2013-08-08 13:42:00,
2013-08-08 09:47:00,75.0,69.8,30.09,West,267,0.5,1.2,84,0.00,OVC,,0.00,WeatherDisplay:10.37,2013-08-08 13:47:00,
2013-08-08 09:52:00,74.9,69.4,30.09,WSW,243,0.1,1.2,83,0.00,OVC,,0.00,WeatherDisplay:10.37,2013-08-08 13:52:00,
2013-08-08 09:57:00,74.9,70.1,30.09,SE,124,0.0,0.0,85,0.00,OVC,,0.00,WeatherDisplay:10.37,2013-08-08 13:57:00,
2013-08-08 10:02:00,75.0,69.5,30.09,SW,231,0.0,1.0,83,0.00,OVC,,0.00,WeatherDisplay:10.37,2013-08-08 14:02:00,
2013-08-08 10:07:00,75.0,69.8,30.09,WSW,257,0.0,1.2,84,0.00,OVC,,0.00,WeatherDisplay:10.37,2013-08-08 14:07:00,
2013-08-08 10:12:00,75.3,70.1,30.09,WSW,257,0.0,0.0,84,0.00,OVC,,0.00,WeatherDisplay:10.37,2013-08-08 14:12:00,
2013-08-08 10:17:00,75.6,70.1,30.09,WSW,258,0.0,0.0,83,0.00,OVC,,0.00,WeatherDisplay:10.37,2013-08-08 14:17:00,
2013-08-08 10:22:00,75.9,70.4,30.09,West,266,0.0,0.0,83,0.00,OVC,,0.00,WeatherDisplay:10.37,2013-08-08 14:22:00,
2013-08-08 10:27:00,76.1,69.8,30.09,West,266,0.0,1.0,81,0.00,OVC,,0.00,WeatherDisplay:10.37,2013-08-08 14:27:00,
2013-08-08 10:32:00,76.4,70.5,30.09,SSW,198,0.0,0.0,82,0.00,OVC,,0.00,WeatherDisplay:10.37,2013-08-08 14:32:00,
2013-08-08 10:37:00,76.7,70.4,30.08,WSW,255,0.0,0.0,81,0.00,OVC,,0.00,WeatherDisplay:10.37,2013-08-08 14:37:00,
2013-08-08 10:42:00,76.8,70.5,30.08,NW,318,1.1,3.0,81,0.00,OVC,,0.00,WeatherDisplay:10.37,2013-08-08 14:42:00,
2013-08-08 10:47:00,76.5,70.2,30.08,WNW,297,0.8,1.2,81,0.00,OVC,,0.00,WeatherDisplay:10.37,2013-08-08 14:47:00,
2013-08-08 10:52:00,76.7,70.8,30.09,WSW,247,0.0,0.0,82,0.00,OVC,,0.00,WeatherDisplay:10.37,2013-08-08 14:52:00,
2013-08-08 10:57:00,77.1,70.8,30.09,West,270,0.6,2.3,81,0.00,OVC,,0.00,WeatherDisplay:10.37,2013-08-08 14:57:00,
2013-08-08 11:02:00,77.4,70.7,30.09,WSW,246,0.0,1.2,80,0.00,OVC,,0.00,WeatherDisplay:10.37,2013-08-08 15:02:00,
2013-08-08 11:07:00,77.5,70.5,30.09,WNW,282,0.3,1.2,79,0.00,OVC,,0.00,WeatherDisplay:10.37,2013-08-08 15:07:00,
2013-08-08 11:12:00,77.7,70.7,30.09,WSW,250,0.6,2.3,79,0.00,OVC,,0.00,WeatherDisplay:10.37,2013-08-08 15:12:00,
2013-08-08 11:17:00,77.7,70.7,30.09,WSW,255,0.0,0.0,79,0.00,BKN,,0.00,WeatherDisplay:10.37,2013-08-08 15:17:00,
2013-08-08 11:22:00,78.1,71.1,30.09,WSW,253,0.0,0.0,79,0.00,BKN,,0.00,WeatherDisplay:10.37,2013-08-08 15:22:00,
2013-08-08 11:27:00,78.1,71.1,30.09,WSW,238,1.3,3.5,79,0.00,BKN,,0.00,WeatherDisplay:10.37,2013-08-08 15:27:00,
2013-08-08 11:32:00,78.1,70.7,30.09,East,96,0.0,1.2,78,0.00,BKN,,0.00,WeatherDisplay:10.37,2013-08-08 15:32:00,
2013-08-08 11:37:00,78.1,71.1,30.09,East,96,0.0,0.0,79,0.00,BKN,,0.00,WeatherDisplay:10.37,2013-08-08 15:37:00,
2013-08-08 11:42:00,78.6,71.5,30.09,East,96,0.0,0.0,79,0.00,BKN,,0.00,WeatherDisplay:10.37,2013-08-08 15:42:00,
2013-08-08 11:47:00,79.0,71.9,30.09,NW,316,0.5,1.2,79,0.00,BKN,,0.00,WeatherDisplay:10.37,2013-08-08 15:47:00,
2013-08-08 11:52:00,79.2,72.1,30.09,WNW,297,0.0,1.2,79,0.00,BKN,,0.00,WeatherDisplay:10.37,2013-08-08 15:52:00,
2013-08-08 11:57:00,79.8,71.9,30.09,West,263,0.6,2.3,77,0.00,BKN,,0.00,WeatherDisplay:10.37,2013-08-08 15:57:00,
2013-08-08 12:02:00,80.0,72.9,30.09,WNW,287,0.1,0.0,79,0.00,BKN,,0.00,WeatherDisplay:10.37,2013-08-08 16:02:00,
2013-08-08 12:07:00,80.6,72.3,30.09,ENE,63,0.9,2.3,76,0.00,BKN,,0.00,WeatherDisplay:10.37,2013-08-08 16:07:00,
2013-08-08 12:12:00,81.3,73.0,30.08,East,91,0.9,2.3,76,0.00,BKN,,0.00,WeatherDisplay:10.37,2013-08-08 16:12:00,
2013-08-08 12:17:00,81.5,72.0,30.09,West,273,1.6,2.3,73,0.00,OVC,,0.00,WeatherDisplay:10.37,2013-08-08 16:17:00,
2013-08-08 12:22:00,81.7,73.0,30.09,SW,229,0.2,1.0,75,0.00,OVC,,0.00,WeatherDisplay:10.37,2013-08-08 16:22:00,
2013-08-08 12:27:00,81.8,73.1,30.09,NNW,338,0.0,0.0,75,0.00,OVC,,0.00,WeatherDisplay:10.37,2013-08-08 16:27:00,
2013-08-08 12:32:00,81.7,71.8,30.09,West,278,2.2,3.5,72,0.00,OVC,,0.00,WeatherDisplay:10.37,2013-08-08 16:32:00,
2013-08-08 12:37:00,81.5,72.4,30.08,East,96,0.3,1.2,74,0.00,OVC,,0.00,WeatherDisplay:10.37,2013-08-08 16:37:00,
2013-08-08 12:42:00,82.0,72.9,30.08,West,260,0.0,1.0,74,0.00,OVC,,0.00,WeatherDisplay:10.37,2013-08-08 16:42:00,
2013-08-08 12:47:00,83.0,73.9,30.08,WSW,238,0.3,1.2,74,0.00,BKN,,0.00,WeatherDisplay:10.37,2013-08-08 16:47:00,
2013-08-08 12:52:00,83.2,73.2,30.08,NE,55,1.0,1.2,72,0.00,BKN,,0.00,WeatherDisplay:10.37,2013-08-08 16:52:00,
2013-08-08 12:57:00,82.7,72.7,30.08,NW,311,0.8,1.2,72,0.00,BKN,,0.00,WeatherDisplay:10.37,2013-08-08 16:57:00,
2013-08-08 13:02:00,82.3,73.2,30.08,West,263,1.5,5.0,74,0.00,BKN,,0.00,WeatherDisplay:10.37,2013-08-08 17:02:00,
2013-08-08 13:07:00,81.6,72.9,30.08,East,96,1.7,3.5,75,0.00,BKN,,0.00,WeatherDisplay:10.37,2013-08-08 17:07:00,
2013-08-08 13:12:00,80.9,72.2,30.08,WNW,302,0.0,0.0,75,0.00,BKN,,0.00,WeatherDisplay:10.37,2013-08-08 17:12:00,
2013-08-08 13:17:00,80.2,72.7,30.08,NW,316,0.2,1.2,78,0.01,RA,,0.01,WeatherDisplay:10.37,2013-08-08 17:17:00,
2013-08-08 13:22:00,79.0,73.0,30.08,WSW,249,0.6,1.2,82,0.01,RA,,0.02,WeatherDisplay:10.37,2013-08-08 17:22:00,
2013-08-08 13:27:00,78.0,73.1,30.08,West,276,0.0,0.0,85,0.14,RA,,0.16,WeatherDisplay:10.37,2013-08-08 17:27:00,
2013-08-08 13:32:00,76.7,72.5,30.08,NE,39,0.3,1.2,87,0.34,RA,,0.34,WeatherDisplay:10.37,2013-08-08 17:32:00,
2013-08-08 13:37:00,75.9,72.8,30.08,NE,37,0.0,0.0,90,0.37,RA,,0.37,WeatherDisplay:10.37,2013-08-08 17:37:00,
2013-08-08 13:42:00,75.7,72.9,30.08,NE,37,0.0,0.0,91,0.37,RA,,0.37,WeatherDisplay:10.37,2013-08-08 17:42:00,
2013-08-08 13:47:00,76.0,73.5,30.07,NE,38,0.0,0.0,92,0.37,RA,,0.37,WeatherDisplay:10.37,2013-08-08 17:47:00,
2013-08-08 13:52:00,76.2,74.0,30.07,NE,37,0.0,0.0,93,0.38,RA,,0.38,WeatherDisplay:10.37,2013-08-08 17:52:00,
2013-08-08 13:57:00,76.2,74.0,30.07,NW,304,0.0,0.0,93,0.38,RA,,0.38,WeatherDisplay:10.37,2013-08-08 17:57:00,
2013-08-08 14:02:00,76.4,74.2,30.07,SW,236,0.0,0.0,93,0.38,RA,,0.38,WeatherDisplay:10.37,2013-08-08 18:02:00,
2013-08-08 14:07:00,76.8,74.6,30.07,NNW,335,0.0,0.0,93,0.38,RA,,0.38,WeatherDisplay:10.37,2013-08-08 18:07:00,
2013-08-08 14:12:00,77.0,74.5,30.07,WSW,257,1.5,3.5,92,0.38,RA,,0.38,WeatherDisplay:10.37,2013-08-08 18:12:00,
2013-08-08 14:17:00,77.1,74.6,30.07,SW,215,0.5,2.0,92,0.37,RA,,0.38,WeatherDisplay:10.37,2013-08-08 18:17:00,
2013-08-08 14:22:00,77.0,74.5,30.07,ESE,120,0.0,1.2,92,0.37,SCT,,0.38,WeatherDisplay:10.37,2013-08-08 18:22:00,
2013-08-08 14:27:00,77.1,74.3,30.07,WNW,297,0.8,2.0,91,0.24,SCT,,0.38,WeatherDisplay:10.37,2013-08-08 18:27:00,
2013-08-08 14:32:00,76.8,74.0,30.07,WNW,290,0.0,1.2,91,0.04,SCT,,0.38,WeatherDisplay:10.37,2013-08-08 18:32:00,
2013-08-08 14:37:00,76.8,74.0,30.06,NW,317,0.2,1.2,91,0.02,RA,,0.39,WeatherDisplay:10.37,2013-08-08 18:37:00,
2013-08-08 14:42:00,76.8,74.3,30.06,NW,316,0.0,0.0,92,0.03,RA,,0.40,WeatherDisplay:10.37,2013-08-08 18:42:00,
2013-08-08 14:47:00,77.1,74.6,30.06,WSW,257,0.0,0.0,92,0.03,RA,,0.40,WeatherDisplay:10.37,2013-08-08 18:47:00,
2013-08-08 14:52:00,77.5,75.3,30.06,West,276,0.1,1.2,93,0.02,RA,,0.40,WeatherDisplay:10.37,2013-08-08 18:52:00,
2013-08-08 14:57:00,77.4,74.6,30.06,NE,40,0.1,1.2,91,0.02,RA,,0.40,WeatherDisplay:10.37,2013-08-08 18:57:00,
2013-08-08 15:02:00,77.3,74.8,30.06,ESE,115,0.0,0.0,92,0.02,RA,,0.40,WeatherDisplay:10.37,2013-08-08 19:02:00,
2013-08-08 15:07:00,77.1,74.3,30.05,SE,132,0.2,1.2,91,0.02,RA,,0.40,WeatherDisplay:10.37,2013-08-08 19:07:00,
2013-08-08 15:12:00,76.7,73.9,30.06,NE,34,1.1,2.3,91,0.05,RA,,0.43,WeatherDisplay:10.37,2013-08-08 19:12:00,
2013-08-08 15:17:00,76.4,73.6,30.06,NE,54,0.0,0.0,91,0.05,RA,,0.43,WeatherDisplay:10.37,2013-08-08 19:17:00,
2013-08-08 15:22:00,76.2,73.4,30.05,NNE,26,0.0,0.0,91,0.07,RA,,0.45,WeatherDisplay:10.37,2013-08-08 19:22:00,
2013-08-08 15:27:00,75.7,72.9,30.06,WSW,250,0.1,2.3,91,0.08,RA,,0.46,WeatherDisplay:10.37,2013-08-08 19:27:00,
2013-08-08 15:32:00,75.1,72.3,30.06,SE,145,1.2,2.3,91,0.08,RA,,0.46,WeatherDisplay:10.37,2013-08-08 19:32:00,
2013-08-08 15:38:00,74.3,71.2,30.05,WNW,303,1.2,4.0,90,0.11,RA,,0.50,WeatherDisplay:10.37,2013-08-08 19:38:00,
2013-08-08 15:43:00,73.3,70.2,30.05,NW,305,1.0,3.5,90,0.12,RA,,0.53,WeatherDisplay:10.37,2013-08-08 19:43:00,
2013-08-08 15:48:00,72.4,69.3,30.06,WNW,302,1.8,2.3,90,0.17,RA,,0.58,WeatherDisplay:10.37,2013-08-08 19:48:00,
2013-08-08 15:53:00,72.0,69.5,30.05,NNE,25,0.0,0.0,92,0.24,RA,,0.65,WeatherDisplay:10.37,2013-08-08 19:53:00,
2013-08-08 15:58:00,71.9,69.8,30.06,WSW,243,0.0,0.0,93,0.29,RA,,0.70,WeatherDisplay:10.37,2013-08-08 19:58:00,
2013-08-08 16:03:00,71.8,69.7,30.06,WNW,286,0.0,0.0,93,0.05,RA,,0.71,WeatherDisplay:10.37,2013-08-08 20:03:00,
2013-08-08 16:08:00,71.8,70.0,30.05,ESE,113,0.5,1.2,94,0.35,RA,,0.76,WeatherDisplay:10.37,2013-08-08 20:08:00,
2013-08-08 16:13:00,71.9,70.1,30.05,NE,53,0.0,0.0,94,0.08,RA,,0.79,WeatherDisplay:10.37,2013-08-08 20:13:00,
2013-08-08 16:18:00,72.0,70.5,30.05,West,280,0.0,0.0,95,0.37,-RA,,0.80,WeatherDisplay:10.37,2013-08-08 20:18:00,
2013-08-08 16:23:00,72.0,70.2,30.05,WSW,242,0.0,1.2,94,0.35,-RA,,0.80,WeatherDisplay:10.37,2013-08-08 20:23:00,
2013-08-08 16:28:00,71.8,70.0,30.05,North,6,1.3,2.0,94,0.34,-RA,,0.80,WeatherDisplay:10.37,2013-08-08 20:28:00,
2013-08-08 16:33:00,71.7,69.9,30.05,NNE,15,0.0,0.0,94,0.00,-RA,,0.80,WeatherDisplay:10.37,2013-08-08 20:33:00,
2013-08-08 16:38:00,71.5,69.7,30.05,North,7,0.0,0.0,94,0.00,-RA,,0.80,WeatherDisplay:10.37,2013-08-08 20:38:00,
2013-08-08 16:43:00,71.7,69.9,30.05,North,7,0.0,0.0,94,0.00,-RA,,0.80,WeatherDisplay:10.37,2013-08-08 20:43:00,
2013-08-08 16:48:00,71.9,70.4,30.05,North,6,0.0,0.0,95,0.00,-RA,,0.80,WeatherDisplay:10.37,2013-08-08 20:48:00,
2013-08-08 16:53:00,72.1,70.6,30.05,North,6,0.0,0.0,95,0.16,-RA,,0.80,WeatherDisplay:10.37,2013-08-08 20:53:00,
2013-08-08 16:58:00,72.2,70.7,30.05,North,7,0.0,0.0,95,0.00,-RA,,0.80,WeatherDisplay:10.37,2013-08-08 20:58:00,
2013-08-08 17:03:00,72.3,70.5,30.05,WSW,244,0.0,0.0,94,0.10,-RA,,0.81,WeatherDisplay:10.37,2013-08-08 21:03:00,
2013-08-08 17:08:00,72.4,70.9,30.05,WSW,250,0.0,0.0,95,0.06,-RA,,0.82,WeatherDisplay:10.37,2013-08-08 21:08:00,
2013-08-08 17:14:00,72.5,71.0,30.05,WSW,252,0.0,0.0,95,0.06,-RA,,0.85,WeatherDisplay:10.37,2013-08-08 21:14:00,
2013-08-08 17:19:00,72.5,70.7,30.05,WSW,252,0.0,0.0,94,0.06,-RA,,0.86,WeatherDisplay:10.37,2013-08-08 21:19:00,
2013-08-08 17:24:00,72.4,70.6,30.05,WSW,252,0.0,0.0,94,0.12,-RA,,0.93,WeatherDisplay:10.37,2013-08-08 21:24:00,
2013-08-08 17:29:00,72.3,70.5,30.05,West,274,0.0,1.2,94,0.15,-RA,,0.95,WeatherDisplay:10.37,2013-08-08 21:29:00,
2013-08-08 17:34:00,72.1,70.3,30.05,West,273,0.0,1.2,94,0.21,-RA,,1.01,WeatherDisplay:10.37,2013-08-08 21:34:00,
2013-08-08 17:40:00,72.0,70.5,30.05,West,280,0.3,1.0,95,0.21,-RA,,1.01,WeatherDisplay:10.37,2013-08-08 21:40:00,
2013-08-08 17:45:00,72.0,70.5,30.05,West,280,0.0,0.0,95,0.21,-RA,,1.01,WeatherDisplay:10.37,2013-08-08 21:45:00,
2013-08-08 17:50:00,72.0,70.5,30.05,West,280,0.0,0.0,95,0.22,-RA,,1.02,WeatherDisplay:10.37,2013-08-08 21:50:00,
2013-08-08 17:55:00,72.0,70.5,30.05,West,280,0.0,0.0,95,0.22,-RA,,1.02,WeatherDisplay:10.37,2013-08-08 21:55:00,
2013-08-08 18:00:00,72.1,70.6,30.05,West,280,0.0,0.0,95,0.22,-RA,,1.02,WeatherDisplay:10.37,2013-08-08 22:00:00,
2013-08-08 18:05:00,72.1,70.6,30.06,West,280,0.0,0.0,95,0.21,-RA,,1.02,WeatherDisplay:10.37,2013-08-08 22:05:00,
2013-08-08 18:10:00,72.0,70.5,30.06,WSW,243,0.1,1.2,95,0.19,-RA,,1.02,WeatherDisplay:10.37,2013-08-08 22:10:00,
2013-08-08 18:15:00,71.9,70.4,30.06,WSW,243,0.0,0.0,95,0.17,-RA,,1.02,WeatherDisplay:10.37,2013-08-08 22:15:00,
2013-08-08 18:20:00,72.0,70.5,30.06,WSW,244,0.0,0.0,95,0.17,-RA,,1.03,WeatherDisplay:10.37,2013-08-08 22:20:00,
2013-08-08 18:25:00,72.0,70.5,30.06,WSW,243,0.0,0.0,95,0.11,-RA,,1.03,WeatherDisplay:10.37,2013-08-08 22:25:00,
2013-08-08 18:30:00,71.9,70.4,30.06,WSW,243,0.0,0.0,95,0.08,-RA,,1.03,WeatherDisplay:10.37,2013-08-08 22:30:00,
2013-08-08 18:35:00,72.0,70.5,30.06,WSW,243,0.0,0.0,95,0.02,-RA,,1.04,WeatherDisplay:10.37,2013-08-08 22:35:00,
2013-08-08 18:40:00,72.1,70.6,30.06,WSW,243,0.0,0.0,95,0.03,-RA,,1.04,WeatherDisplay:10.37,2013-08-08 22:40:00,
2013-08-08 18:45:00,72.1,70.6,30.06,WSW,243,0.0,0.0,95,0.03,-RA,,1.04,WeatherDisplay:10.37,2013-08-08 22:45:00,
2013-08-08 18:50:00,72.2,70.7,30.06,WSW,243,0.0,0.0,95,0.02,-RA,,1.04,WeatherDisplay:10.37,2013-08-08 22:50:00,
2013-08-08 18:57:00,72.1,70.6,30.06,WSW,243,0.0,0.0,95,0.02,-RA,,1.04,WeatherDisplay:10.37,2013-08-08 22:57:00,
2013-08-08 19:02:00,72.1,70.6,30.06,WSW,243,0.0,0.0,95,0.02,-RA,,1.04,WeatherDisplay:10.37,2013-08-08 23:02:00,
2013-08-08 19:07:00,72.1,70.6,30.06,WSW,243,0.0,0.0,95,0.02,-RA,,1.04,WeatherDisplay:10.37,2013-08-08 23:07:00,
2013-08-08 19:12:00,72.0,70.5,30.06,WSW,243,0.0,0.0,95,0.02,-RA,,1.04,WeatherDisplay:10.37,2013-08-08 23:12:00,
2013-08-08 19:17:00,72.0,70.5,30.06,WSW,243,0.0,0.0,95,0.01,-RA,,1.04,WeatherDisplay:10.37,2013-08-08 23:17:00,
2013-08-08 19:22:00,72.1,70.6,30.06,WSW,243,0.0,0.0,95,0.01,-RA,,1.04,WeatherDisplay:10.37,2013-08-08 23:22:00,
2013-08-08 19:27:00,72.0,70.5,30.05,WSW,244,0.0,0.0,95,0.01,-RA,,1.04,WeatherDisplay:10.37,2013-08-08 23:27:00,
2013-08-08 19:32:00,72.0,70.5,30.06,WSW,243,0.0,0.0,95,0.01,-RA,,1.04,WeatherDisplay:10.37,2013-08-08 23:32:00,
2013-08-08 19:37:00,72.0,70.5,30.06,WSW,243,0.0,0.0,95,0.00,-RA,,1.04,WeatherDisplay:10.37,2013-08-08 23:37:00,
2013-08-08 19:42:00,72.1,70.9,30.06,WSW,243,0.0,0.0,96,0.00,-RA,,1.04,WeatherDisplay:10.37,2013-08-08 23:42:00,
2013-08-08 19:47:00,72.1,70.9,30.06,WSW,243,0.0,0.0,96,0.00,-RA,,1.04,WeatherDisplay:10.37,2013-08-08 23:47:00,
2013-08-08 19:52:00,72.1,70.9,30.06,WSW,243,0.0,0.0,96,0.00,-RA,,1.04,WeatherDisplay:10.37,2013-08-08 23:52:00,
2013-08-08 19:57:00,72.1,70.6,30.06,WSW,252,0.0,0.0,95,0.00,-RA,,1.04,WeatherDisplay:10.37,2013-08-08 23:57:00,
2013-08-08 20:02:00,72.1,70.9,30.06,WSW,252,0.0,0.0,96,0.00,-RA,,1.04,WeatherDisplay:10.37,2013-08-09 00:02:00,
2013-08-08 20:07:00,72.1,70.9,30.06,WSW,252,0.0,0.0,96,0.00,-RA,,1.04,WeatherDisplay:10.37,2013-08-09 00:07:00,
2013-08-08 20:13:00,72.2,71.0,30.06,WSW,252,0.2,1.2,96,0.00,-RA,,1.04,WeatherDisplay:10.37,2013-08-09 00:13:00,
2013-08-08 20:18:00,72.2,71.0,30.06,WSW,252,0.6,1.2,96,0.01,-RA,,1.05,WeatherDisplay:10.37,2013-08-09 00:18:00,
2013-08-08 20:23:00,72.2,71.0,30.06,WSW,252,0.0,0.0,96,0.01,-RA,,1.05,WeatherDisplay:10.37,2013-08-09 00:23:00,
2013-08-08 20:28:00,72.3,71.1,30.06,WSW,252,0.2,1.2,96,0.01,-RA,,1.05,WeatherDisplay:10.37,2013-08-09 00:28:00,
2013-08-08 20:33:00,72.2,71.0,30.06,WSW,252,0.0,0.0,96,0.01,-RA,,1.05,WeatherDisplay:10.37,2013-08-09 00:33:00,
2013-08-08 20:38:00,72.2,71.0,30.06,WSW,252,0.0,0.0,96,0.01,-RA,,1.05,WeatherDisplay:10.37,2013-08-09 00:38:00,
2013-08-08 20:43:00,72.0,70.5,30.06,ENE,57,0.0,0.0,95,0.01,-RA,,1.05,WeatherDisplay:10.37,2013-08-09 00:43:00,
2013-08-08 20:48:00,71.9,70.4,30.05,NE,44,0.0,0.0,95,0.00,-RA,,1.05,WeatherDisplay:10.37,2013-08-09 00:48:00,
2013-08-08 20:53:00,71.8,70.6,30.05,NE,37,0.0,0.0,96,0.00,-RA,,1.05,WeatherDisplay:10.37,2013-08-09 00:53:00,
2013-08-08 20:58:00,71.9,70.7,30.05,NE,37,0.0,0.0,96,0.00,-RA,,1.05,WeatherDisplay:10.37,2013-08-09 00:58:00,
2013-08-08 21:03:00,72.0,70.8,30.05,NE,34,1.0,0.0,96,0.00,-RA,,1.05,WeatherDisplay:10.37,2013-08-09 01:03:00,
2013-08-08 21:08:00,72.0,70.8,30.05,NNE,26,0.0,0.0,96,0.00,-RA,,1.05,WeatherDisplay:10.37,2013-08-09 01:08:00,
2013-08-08 21:13:00,71.9,70.7,30.05,NNE,27,0.0,0.0,96,0.00,-RA,,1.05,WeatherDisplay:10.37,2013-08-09 01:13:00,
2013-08-08 21:18:00,71.9,70.7,30.05,NNW,343,0.0,0.0,96,0.00,OVC,,1.05,WeatherDisplay:10.37,2013-08-09 01:18:00,
2013-08-08 21:23:00,71.9,70.7,30.05,NNW,343,0.0,0.0,96,0.00,OVC,,1.05,WeatherDisplay:10.37,2013-08-09 01:23:00,
2013-08-08 21:28:00,71.9,70.7,30.05,NNW,343,0.0,0.0,96,0.00,OVC,,1.05,WeatherDisplay:10.37,2013-08-09 01:28:00,
2013-08-08 21:33:00,71.9,70.7,30.06,NNW,343,0.0,0.0,96,0.00,OVC,,1.05,WeatherDisplay:10.37,2013-08-09 01:33:00,
2013-08-08 21:38:00,71.8,70.6,30.06,NNW,343,0.0,0.0,96,0.00,OVC,,1.05,WeatherDisplay:10.37,2013-08-09 01:38:00,
2013-08-08 21:43:00,71.8,70.6,30.06,NNE,32,0.0,0.0,96,0.00,OVC,,1.05,WeatherDisplay:10.37,2013-08-09 01:43:00,
2013-08-08 21:49:00,71.7,70.5,30.06,NNE,32,0.0,0.0,96,0.00,OVC,,1.05,WeatherDisplay:10.37,2013-08-09 01:49:00,
2013-08-08 21:54:00,71.7,70.5,30.06,NNE,31,0.0,0.0,96,0.00,OVC,,1.05,WeatherDisplay:10.37,2013-08-09 01:54:00,
2013-08-08 21:59:00,71.7,70.5,30.06,NNE,32,0.0,0.0,96,0.00,OVC,,1.05,WeatherDisplay:10.37,2013-08-09 01:59:00,
2013-08-08 22:04:00,71.7,70.5,30.06,NNE,32,0.0,0.0,96,0.00,OVC,,1.05,WeatherDisplay:10.37,2013-08-09 02:04:00,
2013-08-08 22:09:00,71.6,70.4,30.06,NNE,31,0.0,0.0,96,0.00,OVC,,1.05,WeatherDisplay:10.37,2013-08-09 02:09:00,
2013-08-08 22:14:00,71.6,70.4,30.06,NNE,31,0.0,0.0,96,0.00,OVC,,1.05,WeatherDisplay:10.37,2013-08-09 02:14:00,
2013-08-08 22:19:00,71.6,70.4,30.06,NNE,33,0.0,0.0,96,0.00,BKN,,1.05,WeatherDisplay:10.37,2013-08-09 02:19:00,
2013-08-08 22:26:00,71.6,70.4,30.06,NNE,32,0.0,0.0,96,0.00,BKN,,1.05,WeatherDisplay:10.37,2013-08-09 02:26:00,
2013-08-08 22:31:00,71.6,70.4,30.06,NNE,32,0.0,0.0,96,0.00,BKN,,1.05,WeatherDisplay:10.37,2013-08-09 02:31:00,
2013-08-08 22:36:00,71.6,70.4,30.06,NNE,32,0.0,0.0,96,0.00,BKN,,1.05,WeatherDisplay:10.37,2013-08-09 02:36:00,
2013-08-08 22:42:00,71.6,70.4,30.06,NE,43,0.0,0.0,96,0.00,BKN,,1.05,WeatherDisplay:10.37,2013-08-09 02:42:00,
2013-08-08 22:47:00,71.6,70.4,30.06,West,278,0.0,0.0,96,0.00,BKN,,1.05,WeatherDisplay:10.37,2013-08-09 02:47:00,
2013-08-08 22:53:00,71.6,70.4,30.06,West,265,0.0,0.0,96,0.00,BKN,,1.05,WeatherDisplay:10.37,2013-08-09 02:53:00,
2013-08-08 22:58:00,71.7,70.5,30.06,West,265,0.0,0.0,96,0.00,BKN,,1.05,WeatherDisplay:10.37,2013-08-09 02:58:00,
2013-08-08 23:03:00,71.6,70.4,30.06,West,266,0.0,0.0,96,0.00,BKN,,1.05,WeatherDisplay:10.37,2013-08-09 03:03:00,
2013-08-08 23:08:00,71.7,70.5,30.06,West,266,0.0,0.0,96,0.00,BKN,,1.05,WeatherDisplay:10.37,2013-08-09 03:08:00,
2013-08-08 23:13:00,71.7,70.5,30.06,West,265,0.0,0.0,96,0.00,BKN,,1.05,WeatherDisplay:10.37,2013-08-09 03:13:00,
2013-08-08 23:18:00,71.6,70.4,30.06,West,266,0.0,0.0,96,0.00,BKN,,1.05,WeatherDisplay:10.37,2013-08-09 03:18:00,
2013-08-08 23:24:00,71.4,70.2,30.06,West,266,0.0,0.0,96,0.00,BKN,,1.05,WeatherDisplay:10.37,2013-08-09 03:24:00,
2013-08-08 23:29:00,71.3,70.1,30.06,WSW,248,0.0,0.0,96,0.00,BKN,,1.05,WeatherDisplay:10.37,2013-08-09 03:29:00,
2013-08-08 23:34:00,71.2,70.0,30.05,WSW,248,0.0,0.0,96,0.00,BKN,,1.05,WeatherDisplay:10.37,2013-08-09 03:34:00,
2013-08-08 23:39:00,71.1,69.9,30.05,WSW,247,0.0,0.0,96,0.00,BKN,,1.05,WeatherDisplay:10.37,2013-08-09 03:39:00,
2013-08-08 23:44:00,71.0,69.8,30.05,WSW,247,0.0,0.0,96,0.00,BKN,,1.05,WeatherDisplay:10.37,2013-08-09 03:44:00,
2013-08-08 23:49:00,71.0,69.8,30.05,WSW,248,0.0,0.0,96,0.00,BKN,,1.05,WeatherDisplay:10.37,2013-08-09 03:49:00,
2013-08-08 23:55:00,71.0,69.8,30.05,WSW,247,0.0,0.0,96,0.00,BKN,,1.05,WeatherDisplay:10.37,2013-08-09 03:55:00,